Weather History for Rose Spit, BC

Change the Weather History Date:

Wednesday, February 20, 2013

  Actual Average Record
Temperature  
Mean Temperature 41 °F -  
Max Temperature 46 °F - - ()
Min Temperature 36 °F - - ()
Degree Days  
Heating Degree Days 24    
Moisture  
Dew Point 37 °F    
Average Humidity 87    
Maximum Humidity 94    
Minimum Humidity 76    
Precipitation  
Precipitation 0.12 in - - ()
Sea Level Pressure  
Sea Level Pressure 29.65 in    
Wind  
Wind Speed 20 mph ()    
Max Wind Speed 37 mph    
Max Gust Speed 45 mph    
T = Trace of Precipitation, MM = Missing Value Source: Averaged Metar Reports

Daily Weather History Graph

Daily Weather History Graph

Search for Another Location

Airport:

Trip Planner

Search our weather history database for the weather conditions in past years. The results will help you decide how hot, cold, wet, or windy it might be!

Date:

Astronomy

Feb. 20, 2013 Rise Set
Actual Time 7:55 AM PST 6:06 PM PST
Civil Twilight 7:18 AM PST 6:42 PM PST
Nautical Twilight 6:37 AM PST 7:24 PM PST
Astronomical Twilight 5:56 AM PST 8:05 PM PST
Moon 1:05 PM PST (2/20) 4:49 AM PST (2/20)
Length of Visible Light 11h 24m
Length of Day
10h 11m
Waxing Gibbous, 77% of the Moon is Illuminated
Feb 20
Waxing Gibbous
Feb 25
Full
Mar 4
Last Quarter
Mar 11
New
Mar 19
First Quarter

Hourly Weather History & Observations

Time (PST) Temp. Windchill Dew Point Humidity Pressure Visibility Wind Dir Wind Speed Gust Speed Precip Events Conditions
12:00 AM 40.3 °F 31.0 °F 38.1 °F 92% 29.75 in - South 19.6 mph - N/A   Unknown
1:00 AM 40.8 °F 30.9 °F 37.4 °F 88% 29.73 in - SSE 23.0 mph 28.8 mph N/A   Unknown
2:00 AM 40.8 °F 30.7 °F 36.7 °F 85% 29.72 in - South 24.2 mph 32.2 mph N/A   Unknown
3:00 AM 37.0 °F 25.4 °F 34.5 °F 91% 29.70 in - South 25.3 mph 32.2 mph 0.03 in   Unknown
4:00 AM 38 °F - 36 °F 89% 29.66 in - SSE 29.9 mph - -  
4:00 AM 37.6 °F 25.2 °F 36.0 °F 94% 29.66 in - SSE 29.9 mph - 0.06 in   Unknown
5:00 AM 39.6 °F 27.1 °F 37.9 °F 94% 29.63 in - SSE 34.5 mph 41.4 mph 0.03 in   Unknown
6:00 AM 40.3 °F 28.9 °F 38.5 °F 93% 29.64 in - South 29.9 mph 39.1 mph 0.05 in   Unknown
7:00 AM 38.8 °F 30.8 °F 37.0 °F 93% 29.67 in - SSW 13.8 mph 20.7 mph 0.02 in   Unknown
8:00 AM 37.9 °F 30.0 °F 36.3 °F 94% 29.70 in - SSW 12.7 mph - N/A   Unknown
9:00 AM 39.4 °F 30.4 °F 37.4 °F 93% 29.71 in - WSW 17.3 mph - N/A   Unknown
10:00 AM 41 °F - 38 °F 84% 29.73 in - WSW 19.6 mph - -  
10:00 AM 40.6 °F 31.4 °F 37.8 °F 89% 29.73 in - WSW 19.6 mph - N/A   Unknown
11:00 AM 42.3 °F 34.4 °F 38.1 °F 85% 29.74 in - WSW 16.1 mph - N/A   Unknown
12:00 PM 43.5 °F 36.7 °F 38.3 °F 82% 29.75 in - WSW 13.8 mph - N/A   Unknown
1:00 PM 44.1 °F 37.4 °F 37.2 °F 77% 29.75 in - SW 13.8 mph - N/A   Unknown
2:00 PM 44.4 °F 40.0 °F 37.4 °F 76% 29.73 in - South 8.1 mph - N/A   Unknown
3:00 PM 40.5 °F 33.2 °F 34.5 °F 79% 29.71 in - SSW 12.7 mph 19.6 mph N/A   Unknown
4:00 PM 40 °F - 36 °F 81% 29.69 in - South 11.5 mph - -  
4:00 PM 40.5 °F 33.6 °F 36.1 °F 85% 29.69 in - South 11.5 mph - N/A   Unknown
6:00 PM 40.8 °F 31.4 °F 35.2 °F 80% 29.60 in - South 20.7 mph - N/A   Unknown
7:00 PM 37.6 °F 27.1 °F 33.6 °F 86% 29.58 in - South 20.7 mph 28.8 mph N/A   Unknown
8:00 PM 38.7 °F 26.9 °F 36.1 °F 91% 29.52 in - SSE 28.8 mph 34.5 mph 0.02 in   Unknown
9:00 PM 39.4 °F 26.7 °F 36.0 °F 88% 29.47 in - SSE 35.7 mph 43.7 mph N/A   Unknown
10:00 PM 39 °F - 36 °F 87% 29.44 in - SSE 36.8 mph - -  
10:00 PM 39.4 °F 26.5 °F 36.5 °F 89% 29.44 in - SSE 36.8 mph 44.9 mph N/A   Unknown
11:00 PM 39.7 °F 27.0 °F 37.0 °F 90% 29.41 in - SSE 36.8 mph 44.9 mph N/A   Unknown